Simultaneous Nadir Overpasses (SNOs) Predictions

Prediction of SNOs between LANDSAT-8 and TERRA Satellite Orbit:

Table of predicted SNOs for the next 14.0 days since TLE Epoch: 10/5/2024
Index Date (LANDSAT-8) Time (LANDSAT-8) Lat,Lon (LANDSAT-8) SZA (LANDSAT-8 ) Date (TERRA) Time (TERRA) Lat,Lon (TERRA) SZA (TERRA ) Distance(km) Time Diff (sec)
1 10/05/2024 13:47:08 81.80, 40.89 92.29 10/05/2024 13:48:15 81.80, 41.09 92.35 3.23 67
2 10/05/2024 14:36:34 -81.80,-151.28 87.68 10/05/2024 14:37:36 -81.79,-151.17 87.63 1.85 62
3 10/05/2024 15:26:00 81.79, 16.62 92.37 10/05/2024 15:26:56 81.79, 16.47 92.39 2.42 56
4 10/05/2024 16:15:27 -81.80,-175.97 87.65 10/05/2024 16:16:17 -81.79,-175.79 87.60 3.00 50
5 10/05/2024 17:04:53 81.79, -8.07 92.40 10/05/2024 17:05:37 81.79, -8.15 92.42 1.29 44
6 10/05/2024 17:54:20 -81.80, 159.34 87.62 10/05/2024 17:54:59 -81.80, 159.18 87.61 2.63 39
7 10/05/2024 18:43:46 81.79, -32.76 92.44 10/05/2024 18:44:18 81.79, -32.77 92.45 0.32 32
8 10/05/2024 19:33:13 -81.80, 134.65 87.59 10/05/2024 19:33:40 -81.80, 134.56 87.58 1.51 27
9 10/05/2024 20:22:39 81.79, -57.45 92.47 10/05/2024 20:22:59 81.79, -57.39 92.48 1.07 20
10 10/05/2024 21:12:06 -81.80, 109.95 87.56 10/05/2024 21:12:21 -81.80, 109.94 87.55 0.52 15
11 10/05/2024 22:01:32 81.79, -82.14 92.50 10/05/2024 22:01:40 81.79, -82.01 92.52 2.18 8
12 10/05/2024 22:50:59 -81.79, 85.26 87.53 10/05/2024 22:51:02 -81.80, 85.32 87.52 0.94 3
13 10/05/2024 23:40:25 81.79,-106.84 92.53 10/05/2024 23:40:21 81.79,-106.63 92.55 3.31 4
14 10/06/2024 00:29:52 -81.79, 60.57 87.50 10/06/2024 00:29:43 -81.80, 60.70 87.48 2.03 9
15 10/06/2024 01:19:18 81.79,-131.53 92.56 10/06/2024 01:19:03 81.80,-131.67 92.53 2.37 15
16 10/06/2024 02:08:44 -81.79, 36.30 87.41 10/06/2024 02:08:23 -81.78, 36.49 87.40 3.15 21
17 10/06/2024 02:58:11 81.79,-156.23 92.59 10/06/2024 02:57:44 81.80,-156.30 92.56 1.26 27
18 10/06/2024 03:47:37 -81.79, 11.60 87.38 10/06/2024 03:47:05 -81.79, 11.45 87.42 2.50 32
19 10/06/2024 04:37:04 81.79, 179.08 92.62 10/06/2024 04:36:25 81.79, 179.08 92.60 0.39 39
20 10/06/2024 05:26:30 -81.79, -13.09 87.35 10/06/2024 05:25:46 -81.79, -13.17 87.39 1.37 44
21 10/06/2024 06:15:57 81.79, 154.38 92.65 10/06/2024 06:15:06 81.79, 154.45 92.63 1.12 51
22 10/06/2024 07:05:23 -81.79, -37.79 87.32 10/06/2024 07:04:27 -81.79, -37.80 87.35 0.30 56
23 10/06/2024 07:54:50 81.79, 129.69 92.68 10/06/2024 07:53:47 81.79, 129.82 92.66 2.21 63



Historial Predications of SNOs between LANDSAT-8 and TERRA
